Weather History for McGuire AFB, NJ

Change the Weather History Date:

Thursday, December 20, 2012

  Actual Average Record
Temperature  
Mean Temperature 38 °F -  
Max Temperature 49 °F 42 °F 62 °F (1999)
Min Temperature 29 °F 25 °F 10 °F (2004)
Degree Days  
Heating Degree Days 26    
Moisture  
Dew Point 33 °F    
Average Humidity 75    
Maximum Humidity 86    
Minimum Humidity 58    
Precipitation  
Precipitation 0.00 in - - ()
Sea Level Pressure  
Sea Level Pressure 30.01 in    
Wind  
Wind Speed 6 mph (East)    
Max Wind Speed 15 mph    
Max Gust Speed 25 mph    
Visibility 10 miles    
Events Rain    
Averages and records for this station are not official NWS values.
T = Trace of Precipitation, MM = Missing Value Source: NWS Daily Summary

Daily Weather History Graph

Daily Weather History Graph

Search for Another Location

Airport:

Trip Planner

Search our weather history database for the weather conditions in past years. The results will help you decide how hot, cold, wet, or windy it might be!

Date:

Astronomy

Dec. 20, 2012 Rise Set
Actual Time 7:16 AM EST 4:36 PM EST
Civil Twilight 6:45 AM EST 5:06 PM EST
Nautical Twilight 6:11 AM EST 5:40 PM EST
Astronomical Twilight 5:38 AM EST 6:13 PM EST
Moon 11:52 AM EST (12/20) 12:00 AM EST (12/20)
Length of Visible Light 10h 20m
Length of Day
9h 19m
First Quarter, 55% of the Moon is Illuminated
Dec 20
First Quarter
Dec 28
Full
Jan 4
Last Quarter
Jan 11
New
Jan 18
First Quarter

Hourly Weather History & Observations

Time (EST) Temp. Windchill Dew Point Humidity Pressure Visibility Wind Dir Wind Speed Gust Speed Precip Events Conditions
12:55 AM 35.8 °F 30.1 °F 26.4 °F 69% 30.14 in 10.0 mi WNW 6.9 mph - N/A   Clear
1:55 AM 35.1 °F 30.1 °F 26.1 °F 70% 30.15 in 10.0 mi West 5.8 mph - N/A   Clear
2:55 AM 33.6 °F 26.8 °F 26.1 °F 74% 30.14 in 10.0 mi NW 8.1 mph - N/A   Clear
3:55 AM 30.6 °F 27.1 °F 24.3 °F 77% 30.15 in 10.0 mi WNW 3.5 mph - N/A   Clear
4:55 AM 33.1 °F 28.7 °F 24.8 °F 72% 30.17 in 10.0 mi NW 4.6 mph - N/A   Clear
5:55 AM 31.3 °F 27.9 °F 24.1 °F 75% 30.17 in 10.0 mi WNW 3.5 mph - N/A   Clear
6:55 AM 29.1 °F - 24.6 °F 83% 30.18 in 10.0 mi Calm Calm - N/A   Clear
7:55 AM 29.8 °F - 26.1 °F 86% 30.19 in 10.0 mi Calm Calm - N/A   Clear
8:55 AM 34.0 °F 31.0 °F 28.0 °F 79% 30.21 in 10.0 mi SSW 3.5 mph - N/A   Clear
9:55 AM 36.1 °F 32.3 °F 29.5 °F 77% 30.19 in 10.0 mi NNE 4.6 mph - N/A   Partly Cloudy
10:55 AM 36.7 °F - 28.4 °F 72% 30.18 in 10.0 mi Calm Calm - N/A   Clear
11:55 AM 40.3 °F 34.4 °F 29.1 °F 64% 30.12 in 10.0 mi ENE 9.2 mph - N/A   Scattered Clouds
12:55 PM 43.2 °F 37.4 °F 30.0 °F 60% 30.09 in 10.0 mi East 10.4 mph - N/A   Clear
1:55 PM 43.7 °F 38.6 °F 29.7 °F 58% 30.10 in 10.0 mi East 9.2 mph - N/A   Clear
2:55 PM 43.9 °F 39.3 °F 31.3 °F 61% 30.08 in 10.0 mi East 8.1 mph - N/A   Scattered Clouds
3:55 PM 43.0 °F 38.2 °F 32.7 °F 67% 30.05 in 10.0 mi ESE 8.1 mph - N/A   Scattered Clouds
4:43 PM 42.8 °F 39.3 °F 33.8 °F 70% 30.03 in 10.0 mi ESE 5.8 mph - N/A   Mostly Cloudy
4:55 PM 42.3 °F 39.4 °F 33.8 °F 72% 30.03 in 10.0 mi ESE 4.6 mph - N/A   Overcast
5:55 PM 41.5 °F - 34.5 °F 76% 30.02 in 10.0 mi Calm Calm - N/A   Overcast
6:11 PM 41.0 °F - 33.8 °F 76% 30.03 in 10.0 mi Calm Calm - N/A   Mostly Cloudy
6:15 PM 41.0 °F 39.0 °F 35.6 °F 81% 30.02 in 10.0 mi NE 3.5 mph - N/A   Scattered Clouds
6:20 PM 41.0 °F 38.0 °F 35.6 °F 81% 30.02 in 10.0 mi NE 4.6 mph - N/A   Scattered Clouds
6:55 PM 41.7 °F 38.0 °F 35.2 °F 78% 29.99 in 10.0 mi Variable 5.8 mph - 0.00 in   Clear
7:06 PM 42.8 °F 40.1 °F 35.6 °F 76% 30.01 in 10.0 mi South 4.6 mph - N/A   Mostly Cloudy
7:27 PM 42.8 °F 39.3 °F 35.6 °F 76% 29.99 in 10.0 mi East 5.8 mph - N/A   Mostly Cloudy
7:55 PM 42.3 °F 37.9 °F 36.3 °F 79% 29.97 in 10.0 mi ESE 6.9 mph - N/A   Clear
8:55 PM 43.7 °F 39.1 °F 37.9 °F 80% 29.91 in 10.0 mi East 8.1 mph - N/A   Partly Cloudy
9:46 PM 44.6 °F 39.7 °F 39.2 °F 81% 29.86 in 10.0 mi ESE 9.2 mph - N/A   Light Drizzle
9:55 PM 45.5 °F 40.3 °F 40.3 °F 82% 29.84 in 10.0 mi East 10.4 mph - 0.00 in   Mostly Cloudy
10:03 PM 46.4 °F 41.9 °F 41.0 °F 81% 29.85 in 10.0 mi ESE 9.2 mph - N/A   Light Drizzle
10:13 PM 46.4 °F 41.9 °F 41.0 °F 81% 29.84 in 10.0 mi ESE 9.2 mph - N/A   Overcast
10:55 PM 48.9 °F - 42.1 °F 77% 29.80 in 10.0 mi East 15.0 mph - 0.00 in   Scattered Clouds
11:03 PM 48.2 °F - 42.8 °F 82% 29.79 in 10.0 mi ESE 13.8 mph - N/A Rain Light Rain
11:36 PM 48.2 °F - 42.8 °F 82% 29.74 in 10.0 mi ESE 15.0 mph 23.0 mph N/A Rain Light Rain
11:44 PM 48.2 °F - 42.8 °F 82% 29.72 in 10.0 mi ESE 13.8 mph 20.7 mph N/A   Overcast
11:55 PM 49.5 °F - 43.3 °F 79% 29.69 in 10.0 mi ESE 13.8 mph 25.3 mph 0.00 in   Overcast